TimeEDT,TemperatureF,Dew PointF,Humidity,Sea Level PressureIn,VisibilityMPH,Wind Direction,Wind SpeedMPH,Gust SpeedMPH,PrecipitationIn,Events,Conditions,WindDirDegrees,DateUTC
12:53 AM,63.0,55.0,75,30.05,10.0,ENE,3.5,-,N/A,,Clear,70,2013-06-15 04:53:00
1:53 AM,63.0,55.0,75,30.04,10.0,East,5.8,-,N/A,,Clear,100,2013-06-15 05:53:00
2:53 AM,62.1,55.0,78,30.05,10.0,ESE,4.6,-,N/A,,Clear,120,2013-06-15 06:53:00
3:53 AM,62.1,55.0,78,30.08,10.0,Calm,Calm,-,N/A,,Clear,0,2013-06-15 07:53:00
4:53 AM,59.0,55.0,87,30.07,10.0,SSE,3.5,-,N/A,,Clear,160,2013-06-15 08:53:00
5:53 AM,57.9,55.0,90,30.08,10.0,Calm,Calm,-,N/A,,Clear,0,2013-06-15 09:53:00
6:53 AM,60.1,55.9,86,30.10,10.0,Calm,Calm,-,N/A,,Clear,0,2013-06-15 10:53:00
7:53 AM,63.0,57.9,84,30.11,10.0,South,3.5,-,N/A,,Clear,170,2013-06-15 11:53:00
8:53 AM,66.9,59.0,76,30.11,10.0,South,6.9,-,N/A,,Clear,180,2013-06-15 12:53:00
9:53 AM,71.1,59.0,66,30.13,10.0,South,5.8,-,N/A,,Clear,190,2013-06-15 13:53:00
10:53 AM,73.0,57.0,57,30.10,10.0,SW,6.9,-,N/A,,Clear,220,2013-06-15 14:53:00
11:53 AM,75.0,61.0,62,30.09,10.0,South,6.9,-,N/A,,Clear,190,2013-06-15 15:53:00
12:53 PM,77.0,60.1,56,30.04,10.0,SW,9.2,-,N/A,,Clear,230,2013-06-15 16:53:00
1:53 PM,77.0,61.0,58,30.03,10.0,South,8.1,-,N/A,,Partly Cloudy,170,2013-06-15 17:53:00
2:53 PM,78.1,59.0,52,30.03,10.0,SSW,10.4,-,N/A,,Partly Cloudy,200,2013-06-15 18:53:00
3:53 PM,79.0,60.1,52,30.03,10.0,South,9.2,-,N/A,,Scattered Clouds,190,2013-06-15 19:53:00
4:53 PM,79.0,59.0,50,30.03,10.0,SSW,4.6,-,N/A,,Mostly Cloudy,200,2013-06-15 20:53:00
5:53 PM,80.1,59.0,48,30.02,10.0,Variable,5.8,-,N/A,,Scattered Clouds,0,2013-06-15 21:53:00
6:53 PM,79.0,57.9,48,30.00,10.0,SW,5.8,-,N/A,,Mostly Cloudy,230,2013-06-15 22:53:00
7:53 PM,78.1,59.0,52,29.97,10.0,SSW,5.8,-,N/A,,Mostly Cloudy,200,2013-06-15 23:53:00
8:53 PM,75.0,61.0,62,29.95,10.0,SE,4.6,-,N/A,,Partly Cloudy,140,2013-06-16 00:53:00
9:53 PM,73.0,62.1,68,29.96,10.0,South,4.6,-,N/A,,Scattered Clouds,180,2013-06-16 01:53:00
10:53 PM,72.0,62.1,71,29.98,10.0,South,5.8,-,N/A,,Mostly Cloudy,180,2013-06-16 02:53:00
11:53 PM,70.0,62.1,76,29.97,10.0,SSW,3.5,-,N/A,,Clear,200,2013-06-16 03:53:00